User: anonymous   Login
Location: Wellington
(41.3000°S, 174.7830°E)
Time: 14:29:53
(UTC+13:00)
Language:

SL-08 R/B - Orbit

View from above orbital plane
View from above orbital plane
View from above satellite
View from above satellite

Ground track
Ground track

The orbit data is extracted from the following two-line orbital elements,

1 28381U 04028B   19288.92838031 -.00000031 +00000-0 -45694-4 0  9996
2 28381 082.9575 062.6068 0032338 157.7766 320.1296 13.78248385766142
Epoch (UTC): 15 October 2019 22:16:52
Eccentricity: 0.0032338
inclination: 82.9575°
perigee height: 946 km
apogee height: 994 km
right ascension of ascending node: 62.6068°
argument of perigee: 157.7766°
revolutions per day: 13.78248385
mean anomaly at epoch: 320.1296°
orbit number at epoch: 76614

The dashed part of the orbit path shows where the satellite is in the earth's shadow,  

DLR